Wind_Speed
32 32 33 33 33 33 34 35 35 34 34 34 34 35 36 37 36 36 36 35 35 35 36 36 36 35 35 34 34 35 35 35 34 34 35 35 36 36
30 31 32 32 31 32 33 33 34 35 34 34 33 34 36 37 36 35 35 35 35 36 36 35 34 34 34 34 35 35 34 35 35 34 34 34 35 34
29 29 29 30 31 32 32 32 32 33 34 34 34 33 33 33 33 34 34 34 34 34 34 33 33 33 34 34 34 34 34 34 34 34 35 34 33 33
28 28 28 29 30 30 31 31 31 32 32 33 32 32 32 31 30 30 31 32 33 33 33 33 33 33 33 33 33 34 34 34 34 33 32 32 32 31
27 27 27 27 28 28 29 29 29 29 29 30 30 29 29 29 29 29 30 29 29 30 31 31 32 33 33 33 33 32 31 31 30 30 30 29 29 29
25 25 25 25 25 25 26 26 26 27 27 27 27 27 27 27 28 28 28 28 29 28 29 30 30 30 31 31 30 29 29 28 27 27 27 27 27 27
23 23 23 23 23 23 24 24 24 24 25 24 24 25 25 26 26 26 26 27 28 28 28 28 27 27 27 26 26 25 25 25 25 25 24 24 24 24
20 20 21 21 21 21 21 21 21 21 21 21 21 22 22 22 23 23 24 25 24 25 25 24 23 23 23 23 23 22 22 22 22 22 22 22 22 23
18 19 19 19 19 18 18 18 18 17 18 19 19 19 19 20 20 20 21 20 21 21 20 20 20 20 20 19 19 19 19 20 20 20 20 21 21 21
16 16 15 15 16 15 15 15 15 15 16 16 16 16 16 16 17 17 17 18 18 18 17 17 17 17 16 17 17 17 18 18 19 19 19 19 19 19
13 13 12 12 12 13 13 13 13 13 13 13 13 14 14 14 15 15 14 14 14 14 13 14 14 14 15 15 15 16 16 16 16 16 16 17 17 18
9 9 10 10 10 10 10 10 10 10 10 11 11 11 11 11 11 11 12 11 11 11 12 12 12 12 13 13 13 13 13 14 15 15 15 16 17 17
7 7 7 7 7 6 7 7 7 7 7 8 8 8 8 8 8 9 9 9 10 10 10 10 11 11 11 11 12 13 13 14 14 15 15 15 16 16
4 4 4 5 5 4 4 3 4 5 5 6 6 6 6 6 7 7 7 7 8 8 8 9 9 10 10 10 11 12 13 13 14 14 15 15 16 17
2 2 2 3 3 3 3 3 3 3 3 4 4 4 4 5 6 6 7 7 7 8 8 9 9 9 10 10 11 12 12 13 14 15 15 16 17 17
4 4 5 5 5 5 4 3 4 4 4 4 4 4 4 5 5 6 6 7 8 8 9 9 10 11 11 11 12 13 13 14 14 15 16 16 17 17
7 7 7 7 7 6 5 5 5 5 5 4 4 5 5 6 6 6 7 7 8 8 8 8 9 10 11 11 12 13 13 14 15 16 17 17 17 18
9 8 8 7 7 7 6 6 6 6 6 6 6 6 6 6 7 7 7 8 8 8 8 9 10 11 12 12 13 13 14 15 16 16 17 18 18 19
9 8 8 8 8 8 8 7 7 7 8 8 8 7 8 8 8 8 8 9 9 9 10 11 12 12 12 12 14 15 15 16 17 17 18 19 19 20
10 9 9 10 10 9 9 8 8 8 8 8 8 9 9 9 9 9 9 10 10 11 12 13 13 14 14 14 15 16 18 18 19 19 19 20 20 20
11 11 11 11 11 11 10 9 9 9 9 9 9 10 10 10 10 10 11 11 12 13 14 14 15 16 16 16 17 17 19 19 19 20 20 21 21 22
12 12 12 12 12 12 11 10 10 9 9 9 10 11 11 11 12 12 13 13 14 15 15 16 17 17 18 18 19 19 20 20 21 21 22 23 23 23
13 13 13 12 12 12 12 11 11 11 11 11 11 12 12 13 13 14 15 16 17 18 18 19 19 20 21 21 21 22 22 23 23 23 24 25 25 25
Wind_Direction
270 269 269 269 268 267 268 268 268 269 268 269 269 271 272 274 274 274 276 276 276 275 275 275 276 277 277 279 279 280 280 280 280 280 281 281 281 282
271 271 270 270 270 270 270 270 270 270 272 272 272 273 272 272 273 273 274 275 275 275 275 275 277 279 280 280 281 281 280 279 279 280 281 283 281 281
273 274 273 271 271 270 270 271 272 273 275 273 273 273 273 274 273 272 272 274 275 276 276 276 277 279 280 280 281 281 281 281 280 280 281 282 282 282
275 275 273 272 272 272 272 272 273 275 276 276 276 275 275 275 275 274 274 275 275 277 280 279 278 279 280 280 279 280 281 281 281 282 282 283 283 283
274 274 274 275 275 275 275 275 276 277 277 275 275 275 277 278 278 278 277 277 276 278 280 280 281 281 281 281 280 280 281 282 282 282 282 284 285 285
273 273 275 276 276 277 277 276 276 276 276 275 275 276 278 278 278 278 277 278 277 278 279 281 282 282 282 281 280 281 281 283 282 283 284 285 286 286
274 274 275 275 276 277 278 278 276 276 276 276 275 276 277 277 278 277 276 276 277 278 278 281 281 283 285 283 283 282 282 284 285 286 287 288 288 288
273 274 275 276 278 279 279 279 278 278 279 279 277 278 279 278 277 276 276 278 279 280 280 279 280 281 282 284 284 284 286 286 288 289 289 289 289 288
273 273 275 276 278 280 280 280 280 280 281 280 282 283 283 280 278 279 279 280 282 284 284 281 280 282 284 286 285 285 285 285 286 288 288 288 289 289
272 272 273 275 276 281 282 282 282 281 283 285 285 286 286 284 283 282 281 281 284 286 285 285 284 284 285 287 288 288 288 288 288 289 289 289 289 290
277 275 274 273 275 279 282 284 284 284 287 288 289 288 288 289 289 286 285 285 285 286 287 289 289 287 288 290 290 290 289 289 289 290 291 291 292 294
281 279 277 279 280 278 280 286 288 289 291 293 294 294 294 297 296 293 293 293 292 291 292 294 295 293 292 291 291 294 295 294 294 293 293 294 296 297
293 289 288 290 289 287 285 286 289 292 291 293 295 295 296 301 302 301 299 297 296 296 298 299 298 296 294 294 295 296 297 298 298 298 299 299 299 300
322 312 306 307 302 293 302 311 312 310 309 310 307 307 305 307 312 313 312 307 301 298 298 300 301 302 302 300 299 297 298 300 301 301 299 300 301 303
11 2 6 10 21 30 27 17 4 352 337 335 331 327 327 327 326 326 324 322 317 311 307 304 303 305 306 305 303 302 303 304 304 303 301 301 303 304
54 57 61 57 50 53 47 38 27 15 5 350 340 344 350 348 341 337 333 331 326 319 314 311 307 306 306 305 303 304 305 307 307 306 304 303 303 303
74 72 70 64 59 55 49 40 32 23 23 21 17 12 3 355 349 346 343 338 334 332 327 321 316 313 311 310 310 310 309 309 309 308 306 306 305 306
74 70 64 57 51 49 49 47 44 42 37 30 23 13 6 1 357 354 351 347 344 339 334 330 326 321 318 315 313 312 311 311 311 311 309 308 307 307
70 65 59 54 53 53 53 51 47 43 40 35 28 21 14 8 2 356 353 350 346 340 336 333 330 326 322 318 315 313 313 313 313 311 309 308 306 305
64 61 58 56 54 53 52 50 46 40 36 34 30 25 18 12 7 1 356 352 346 341 337 334 332 329 326 321 317 315 314 313 312 311 311 309 308 307
62 60 58 56 54 51 49 46 42 39 35 30 24 18 14 10 6 1 355 349 345 342 338 334 331 329 326 323 319 316 314 314 312 310 309 308 307 307
60 58 56 55 52 48 44 40 37 32 27 19 13 8 5 2 359 356 352 348 344 341 337 334 331 329 326 323 320 317 314 312 311 310 308 307 307 307
59 56 54 51 47 43 40 36 30 22 16 11 6 1 357 354 350 348 346 344 342 340 336 332 329 326 325 323 321 318 316 313 311 309 308 307 307 308
Height
5771 5771 5772 5773 5773 5774 5774 5775 5777 5777 5778 5779 5779 5779 5780 5780 5781 5781 5782 5782 5782 5782 5782 5782 5782 5782 5782 5781 5781 5781 5780 5779 5778 5777 5776 5775 5774 5772
5763 5763 5764 5764 5765 5765 5766 5766 5768 5769 5769 5770 5770 5770 5771 5771 5771 5772 5773 5773 5773 5773 5773 5773 5773 5773 5773 5772 5772 5771 5770 5770 5769 5768 5767 5766 5764 5763
5755 5755 5756 5756 5757 5757 5758 5758 5759 5760 5760 5761 5761 5761 5762 5763 5763 5763 5763 5764 5764 5764 5764 5764 5764 5763 5763 5763 5762 5762 5761 5760 5759 5758 5758 5756 5755 5754
5747 5748 5748 5749 5749 5749 5750 5750 5751 5751 5752 5752 5752 5753 5753 5754 5754 5754 5755 5755 5755 5755 5755 5755 5755 5754 5754 5754 5753 5752 5752 5751 5751 5749 5748 5748 5746 5745
5740 5741 5741 5741 5742 5742 5742 5743 5743 5744 5744 5744 5745 5745 5745 5746 5746 5746 5747 5747 5747 5747 5746 5746 5745 5745 5745 5745 5744 5744 5743 5742 5742 5741 5740 5739 5738 5736
5733 5734 5734 5734 5735 5735 5735 5736 5736 5736 5737 5737 5738 5738 5738 5738 5738 5738 5738 5739 5739 5739 5738 5737 5737 5736 5736 5736 5735 5735 5734 5734 5733 5733 5732 5731 5729 5728
5727 5727 5728 5728 5728 5729 5729 5729 5730 5730 5730 5731 5731 5731 5731 5731 5731 5731 5731 5731 5730 5730 5730 5730 5729 5729 5728 5728 5728 5727 5727 5726 5726 5725 5724 5723 5722 5720
5721 5722 5722 5722 5723 5723 5723 5723 5724 5724 5724 5724 5724 5724 5724 5724 5724 5724 5724 5724 5723 5723 5723 5723 5722 5722 5721 5721 5720 5720 5720 5719 5718 5718 5717 5716 5714 5713
5715 5716 5717 5717 5717 5718 5718 5718 5718 5718 5719 5719 5718 5718 5718 5717 5717 5717 5717 5717 5717 5717 5716 5716 5716 5716 5715 5715 5714 5714 5713 5713 5712 5711 5710 5709 5708 5707
5711 5711 5712 5712 5713 5713 5714 5713 5714 5714 5713 5713 5713 5713 5712 5712 5712 5712 5712 5712 5712 5711 5711 5710 5710 5710 5710 5709 5709 5708 5707 5707 5706 5705 5704 5703 5702 5701
5707 5707 5708 5708 5709 5709 5710 5710 5709 5709 5709 5709 5708 5708 5708 5708 5708 5708 5707 5707 5707 5706 5706 5706 5705 5705 5705 5704 5703 5703 5702 5701 5701 5700 5699 5698 5697 5696
5704 5704 5705 5705 5706 5706 5706 5706 5706 5706 5706 5706 5705 5705 5705 5704 5704 5704 5704 5703 5703 5702 5702 5702 5701 5701 5701 5700 5700 5699 5698 5697 5696 5695 5694 5693 5692 5691
5702 5702 5702 5703 5703 5703 5704 5704 5704 5704 5704 5704 5703 5703 5702 5702 5701 5701 5701 5700 5700 5699 5699 5698 5698 5697 5697 5697 5696 5695 5694 5693 5692 5691 5690 5689 5688 5687
5701 5701 5701 5701 5702 5702 5702 5702 5702 5702 5702 5701 5701 5701 5700 5700 5699 5699 5698 5697 5697 5697 5696 5696 5695 5694 5694 5693 5693 5692 5691 5690 5688 5687 5686 5685 5683 5682
5700 5700 5701 5701 5701 5701 5701 5702 5701 5701 5701 5701 5700 5700 5699 5699 5698 5698 5697 5696 5695 5695 5694 5693 5693 5692 5691 5690 5689 5688 5688 5686 5685 5683 5682 5680 5679 5677
5701 5701 5701 5702 5702 5702 5702 5702 5702 5701 5701 5701 5700 5700 5699 5698 5698 5697 5696 5695 5694 5693 5692 5691 5690 5689 5688 5687 5686 5685 5684 5683 5681 5679 5678 5676 5675 5673
5703 5703 5703 5703 5703 5703 5703 5702 5702 5702 5702 5701 5700 5700 5699 5698 5698 5697 5696 5695 5694 5693 5691 5690 5689 5687 5686 5685 5683 5682 5681 5679 5677 5676 5674 5672 5670 5668
5705 5705 5705 5705 5704 5704 5704 5703 5703 5703 5702 5702 5701 5700 5699 5698 5697 5696 5695 5694 5693 5692 5690 5689 5687 5686 5684 5682 5681 5679 5678 5676 5674 5672 5670 5668 5666 5664
5708 5707 5707 5707 5706 5706 5705 5705 5705 5704 5703 5702 5702 5701 5700 5699 5698 5696 5695 5694 5692 5691 5689 5688 5686 5684 5682 5680 5678 5676 5674 5672 5670 5668 5665 5663 5661 5659
5711 5710 5710 5709 5708 5708 5707 5707 5706 5705 5705 5704 5703 5702 5701 5699 5698 5696 5695 5693 5691 5690 5688 5686 5684 5682 5679 5678 5675 5673 5670 5668 5666 5663 5661 5659 5656 5654
5714 5713 5712 5711 5711 5710 5709 5709 5708 5707 5706 5705 5704 5703 5701 5700 5698 5696 5694 5693 5691 5689 5687 5684 5682 5679 5677 5675 5672 5670 5667 5664 5661 5658 5656 5653 5651 5648
5717 5716 5715 5714 5713 5713 5712 5711 5710 5709 5708 5707 5705 5704 5702 5700 5698 5696 5694 5692 5690 5687 5685 5682 5679 5677 5674 5671 5669 5666 5663 5660 5656 5653 5650 5648 5644 5642
5720 5719 5718 5717 5716 5715 5714 5713 5712 5711 5709 5708 5706 5704 5702 5700 5698 5695 5693 5690 5688 5685 5682 5680 5677 5673 5670 5667 5664 5661 5658 5654 5651 5648 5645 5641 5638 5635